Amsterdam, Netherlands

4:14 AM CET on February 13, 2016 (GMT +0100)
Amsterdam

Weather History for 06240 - August, 2013

Change the Weather History Date:

Friday, August 16, 2013

  Actual Average Record
Temperature  
Mean Temperature 68 °F -  
Max Temperature 79 °F 66 °F - ()
Min Temperature 56 °F 53 °F - ()
Cooling Degree Days 2    
Growing Degree Days 18 (Base 50)    
Moisture  
Dew Point 58 °F    
Average Humidity 76    
Maximum Humidity 100    
Minimum Humidity 44    
Precipitation  
Precipitation 0.00 in - - ()
Sea Level Pressure  
Sea Level Pressure 30.00 in    
Wind  
Wind Speed 7 mph ()    
Max Wind Speed 18 mph    
Max Gust Speed -    
Visibility 7.4 miles    
Events Rain    
T = Trace of Precipitation, MM = Missing Value Source: Averaged Metar Reports

Daily Weather History Graph

Daily Weather History Graph

Search for Another Location

Airport or City:

Trip Planner

Search our weather history database for the weather conditions in past years. The results will help you decide how hot, cold, wet, or windy it might be!

Date:

Astronomy

Aug. 16, 2013 Rise Set
Actual Time 6:25 AM CEST 9:03 PM CEST
Civil Twilight 5:47 AM CEST 9:41 PM CEST
Nautical Twilight 4:58 AM CEST 10:30 PM CEST
Astronomical Twilight 3:58 AM CEST 11:29 PM CEST
Moon 5:22 PM CEST (8/16) 12:59 AM CEST (8/16)
Length of Visible Light 15h 54m
Length of Day
14h 37m
Waxing Gibbous, 72% of the Moon is Illuminated
Aug 16
Waxing Gibbous
Aug 21
Full
Aug 28
Last Quarter
Sep 5
New
Sep 12
First Quarter

Hourly Weather History & Observations

Time (CEST) Temp. Dew Point Humidity Pressure Visibility Wind Dir Wind Speed Gust Speed Precip Events Conditions
12:25 AM 60.8 °F 57.2 °F 88% 30.06 in - SSE 6.9 mph - N/A   Clear
12:55 AM 60.8 °F 57.2 °F 88% 30.06 in - South 5.8 mph - N/A   Clear
1:25 AM 60.8 °F 57.2 °F 88% 30.04 in - SSE 6.9 mph - N/A   Clear
1:55 AM 59.0 °F 57.2 °F 94% 30.04 in - SSE 5.8 mph - N/A   Clear
2:00 AM 59 °F 57 °F 92% 30.06 in 11 mi SSE 4.5 mph - -   Partly Cloudy
2:25 AM 57.2 °F 55.4 °F 94% 30.04 in - South 5.8 mph - N/A   Clear
2:55 AM 59.0 °F 57.2 °F 94% 30.04 in - SSE 6.9 mph - N/A   Clear
3:25 AM 59.0 °F 57.2 °F 94% 30.04 in - SSE 8.1 mph - N/A   Clear
3:55 AM 57.2 °F 57.2 °F 100% 30.04 in - SSE 4.6 mph - N/A   Clear
4:25 AM 57.2 °F 55.4 °F 94% 30.01 in - SSE 5.8 mph - N/A   Clear
4:55 AM 57.2 °F 55.4 °F 94% 30.01 in - South 3.5 mph - N/A   Clear
5:25 AM 57.2 °F 55.4 °F 94% 30.01 in - South 5.8 mph - N/A   Clear
5:55 AM 57.2 °F 55.4 °F 94% 30.01 in - SSE 5.8 mph - N/A   Clear
6:25 AM 57.2 °F 55.4 °F 94% 30.01 in - South 4.6 mph - N/A   Clear
6:55 AM 57.2 °F 55.4 °F 94% 30.01 in - South 5.8 mph - N/A   Clear
7:25 AM 59.0 °F 57.2 °F 94% 30.01 in - South 4.6 mph - N/A   Clear
7:55 AM 60.8 °F 59.0 °F 94% 30.01 in - South 5.8 mph - N/A   Clear
8:00 AM 61 °F 58 °F 88% 30.02 in 14 mi SSE 6.7 mph - -   Partly Cloudy
8:25 AM 62.6 °F 59.0 °F 88% 30.01 in - South 6.9 mph - N/A   Clear
8:55 AM 64.4 °F 60.8 °F 88% 30.01 in - South 5.8 mph - N/A   Clear
9:25 AM 66.2 °F 60.8 °F 83% 30.01 in - South 9.2 mph - N/A   Clear
9:55 AM 68.0 °F 60.8 °F 78% 30.01 in - South 9.2 mph - N/A   Clear
10:25 AM 69.8 °F 62.6 °F 78% 30.01 in - South 8.1 mph - N/A   Clear
10:55 AM 71.6 °F 60.8 °F 69% 29.98 in - South 11.5 mph - N/A   Clear
11:00 AM 74 °F 61 °F 55% 30.00 in 16 mi South 11.2 mph - -   Partly Cloudy
11:25 AM 73.4 °F 59.0 °F 61% 29.98 in - SSW 13.8 mph - N/A   Clear
11:55 AM 75.2 °F 59.0 °F 57% 29.98 in - SSW 12.7 mph - N/A   Clear
12:25 PM 77.0 °F 57.2 °F 50% 29.98 in - SSW 16.1 mph - N/A   Clear
12:55 PM 78.8 °F 59.0 °F 51% 29.98 in - SW 13.8 mph - N/A   Clear
1:25 PM 77.0 °F 60.8 °F 57% 29.98 in - West 16.1 mph - N/A   Clear
1:55 PM 77.0 °F 59.0 °F 54% 29.98 in - West 16.1 mph - N/A   Clear
2:00 PM 74 °F 57 °F 46% 29.99 in 22 mi West 17.9 mph - -   Partly Cloudy
2:25 PM 75.2 °F 57.2 °F 53% 29.98 in - West 17.3 mph - N/A   Clear
2:55 PM 75.2 °F 55.4 °F 50% 29.98 in - West 18.4 mph - N/A   Clear
3:25 PM 77.0 °F 53.6 °F 44% 29.98 in - West 17.3 mph - N/A   Clear
3:55 PM 75.2 °F 53.6 °F 47% 29.98 in - West 17.3 mph - N/A   Clear
4:25 PM 73.4 °F 51.8 °F 47% 29.98 in - West 16.1 mph - N/A   Clear
4:55 PM 71.6 °F 57.2 °F 60% 29.98 in 6.2 mi West 12.7 mph - N/A   Partly Cloudy
5:25 PM 69.8 °F 57.2 °F 64% 29.98 in 6.2 mi West 10.4 mph - N/A   Partly Cloudy
5:55 PM 68.0 °F 57.2 °F 68% 29.98 in 6.2 mi WSW 10.4 mph - N/A   Partly Cloudy
6:25 PM 68.0 °F 59.0 °F 73% 29.98 in 6.2 mi West 8.1 mph - N/A   Partly Cloudy
6:55 PM 68.0 °F 59.0 °F 73% 29.98 in 6.2 mi WSW 5.8 mph - N/A Rain Light Rain Showers
7:25 PM 66.2 °F 59.0 °F 78% 29.98 in 6.2 mi SSW 8.1 mph - N/A   Partly Cloudy
7:55 PM 66.2 °F 59.0 °F 78% 29.98 in 6.2 mi SW 6.9 mph - N/A   Partly Cloudy
8:00 PM 66 °F 59 °F 71% 29.99 in 28 mi SW 6.7 mph - - Rain Light Rain
8:25 PM 66.2 °F 59.0 °F 78% 29.98 in 6.2 mi WSW 6.9 mph - N/A Rain Light Rain Showers
8:55 PM 66.2 °F 57.2 °F 73% 29.98 in 6.2 mi West 5.8 mph - N/A   Partly Cloudy
9:25 PM 66.2 °F 59.0 °F 78% 29.98 in 6.2 mi West 5.8 mph - N/A   Partly Cloudy
9:55 PM 66.2 °F 59.0 °F 78% 29.98 in 6.2 mi WNW 4.6 mph - N/A   Partly Cloudy
10:25 PM 66.2 °F 59.0 °F 78% 29.98 in 6.2 mi SW 3.5 mph - N/A   Partly Cloudy
10:55 PM 64.4 °F 60.8 °F 88% 29.98 in 6.2 mi South 4.6 mph - N/A Rain Light Rain
11:00 PM 64 °F 61 °F 85% 30.00 in 25 mi SSE 4.5 mph - - Rain Light Rain Showers
11:25 PM 64.4 °F 60.8 °F 88% 29.98 in 6.2 mi South 2.3 mph - N/A   Partly Cloudy
11:55 PM 64.4 °F 60.8 °F 88% 29.98 in 6.2 mi South 5.8 mph - N/A   Partly Cloudy